Date String (YYYY-MM-DD hh:mm:ss) UTC,Instrument flags,Ambient pressure (hPa),Sample flow (lpm),Bypass flow (lpm),Sample temperature (°C),Ambient temperature (°C),ASC tube jacket temperature (°C),LED temperature (°C),Box temperature (°C),Sample RH (%),Span deviation,Mass concentration (μg/m³),Mass concentration (μg/m³),Mass concentration (μg/m³)
DateTimeUTC,F1_M11,P_M11,Q1_M11,Q2_M11,T1_M11,T2_M11,T3_M11,T4_M11,T5_M11,U1_M11,ZSPAN_M11,X2_M11,X0_M11,X1_M11
2022-09-22 08:00:00,,0833.1,5.01,0.00,28.9,27.0,00.0,37.7,30.7,25.9,0000.0,0003.36,0004.02,0003.25
2022-09-22 08:01:00,,0833.2,4.99,0.00,28.9,27.0,00.0,37.7,30.7,25.9,0000.0,0003.29,0004.05,0003.17
2022-09-22 08:02:00,,0833.3,5.00,0.00,28.9,27.1,00.0,37.7,30.7,25.9,0000.0,0003.24,0003.97,0003.11
2022-09-22 08:03:00,,0833.4,4.98,0.00,28.8,27.0,00.0,37.7,30.6,25.9,0000.0,0003.22,0003.97,0003.07
2022-09-22 08:04:00,,0833.4,5.01,0.00,28.8,27.0,00.0,37.7,30.6,25.9,0000.0,0003.20,0003.99,0003.00
2022-09-22 08:05:00,,0833.4,5.01,0.00,28.8,27.1,00.0,37.7,30.6,25.9,0000.0,0003.16,0003.94,0002.94
2022-09-22 08:06:00,,0833.4,4.99,0.00,28.8,27.1,00.0,37.7,30.6,25.9,0000.0,0003.13,0003.85,0002.90
2022-09-22 08:07:00,,0833.3,5.01,0.00,28.8,27.1,00.0,37.7,30.6,25.8,0000.0,0003.04,0003.72,0002.82
2022-09-22 08:08:00,,0833.3,4.99,0.00,28.8,27.1,00.0,37.6,30.7,25.9,0000.0,0002.99,0003.68,0002.77
2022-09-22 08:09:00,,0833.2,5.01,0.00,28.8,27.1,00.0,37.6,30.6,25.8,0000.0,0002.92,0003.60,0002.71
2022-09-22 08:10:00,,0833.1,4.99,0.00,28.8,27.1,00.0,37.6,30.6,25.7,0000.0,0002.80,0003.48,0002.59
2022-09-22 08:11:00,,0833.1,5.01,0.00,28.8,27.0,00.0,37.6,30.6,25.9,0000.0,0002.74,0003.41,0002.53
2022-09-22 08:12:00,,0833.1,5.00,0.00,28.8,27.1,00.0,37.6,30.6,27.1,0000.0,0002.67,0003.19,0002.49
2022-09-22 08:13:00,,0833.1,5.00,0.00,28.8,27.1,00.0,37.6,30.6,26.8,0000.0,0002.61,0003.13,0002.42
2022-09-22 08:14:00,,0833.1,4.99,0.00,28.8,27.1,00.0,37.6,30.6,26.1,0000.0,0002.51,0002.99,0002.33
2022-09-22 08:15:00,,0833.1,5.00,0.00,28.8,27.1,00.0,37.6,30.6,26.0,0000.0,0002.42,0002.87,0002.25
2022-09-22 08:16:00,,0833.0,5.00,0.00,28.8,27.1,00.0,37.6,30.6,25.9,0000.0,0002.35,0002.96,0002.19
2022-09-22 08:17:00,,0833.0,4.99,0.00,28.8,27.2,00.0,37.6,30.6,25.9,0000.0,0002.27,0003.11,0002.10
2022-09-22 08:18:00,,0833.0,5.01,0.00,28.8,27.2,00.0,37.6,30.6,25.8,0000.0,0002.23,0003.08,0002.05
2022-09-22 08:19:00,,0832.9,4.99,0.00,28.8,27.2,00.0,37.6,30.6,25.8,0000.0,0002.19,0003.07,0001.99
2022-09-22 08:20:00,,0832.8,5.01,0.00,28.8,27.3,00.0,37.6,30.7,25.8,0000.0,0002.18,0003.13,0001.95
2022-09-22 08:21:00,,0832.9,4.99,0.00,28.8,27.3,00.0,37.6,30.7,25.8,0000.0,0002.22,0003.20,0001.96
2022-09-22 08:22:00,,0832.8,5.01,0.00,28.8,27.3,00.0,37.6,30.7,25.8,0000.0,0002.19,0003.29,0001.92
2022-09-22 08:23:00,,0832.9,4.99,0.00,28.8,27.3,00.0,37.6,30.7,25.6,0000.0,0002.09,0003.39,0001.83
2022-09-22 08:24:00,,0832.8,5.00,0.00,28.8,27.3,00.0,37.6,30.7,25.6,0000.0,0002.03,0003.38,0001.75
2022-09-22 08:25:00,,0832.7,5.00,0.00,28.8,27.3,00.0,37.6,30.7,25.6,0000.0,0001.96,0003.28,0001.70
2022-09-22 08:26:00,,0832.7,4.99,0.00,28.8,27.3,00.0,37.6,30.7,25.5,0000.0,0001.92,0003.21,0001.66
2022-09-22 08:27:00,,0832.7,5.01,0.00,28.8,27.3,00.0,37.6,30.7,25.5,0000.0,0001.87,0002.99,0001.64
2022-09-22 08:28:00,,0832.7,4.99,0.00,28.8,27.3,00.0,37.6,30.7,25.6,0000.0,0001.85,0002.70,0001.61
2022-09-22 08:29:00,,0832.7,5.00,0.00,28.8,27.2,00.0,37.6,30.7,25.5,0000.0,0001.85,0002.73,0001.60
2022-09-22 08:30:00,,0832.7,4.99,0.00,28.8,27.2,00.0,37.6,30.6,25.6,0000.0,0001.86,0002.76,0001.59
2022-09-22 08:31:00,,0832.7,5.01,0.00,28.8,27.2,00.0,37.6,30.7,25.6,0000.0,0001.84,0002.73,0001.58
2022-09-22 08:32:00,,0832.7,5.00,0.00,28.8,27.2,00.0,37.6,30.7,25.5,0000.0,0001.85,0002.81,0001.59
2022-09-22 08:33:00,,0832.7,5.01,0.00,28.8,27.2,00.0,37.6,30.7,25.5,0000.0,0001.87,0002.84,0001.61
2022-09-22 08:34:00,,0832.7,4.99,0.00,28.8,27.2,00.0,37.6,30.7,25.5,0000.0,0001.95,0002.75,0001.65
2022-09-22 08:35:00,,0832.7,5.01,0.00,28.8,27.3,00.0,37.6,30.7,25.5,0000.0,0002.03,0002.89,0001.72
2022-09-22 08:36:00,,0832.7,4.99,0.00,28.8,27.2,00.0,37.6,30.7,25.4,0000.0,0002.12,0003.03,0001.80
2022-09-22 08:37:00,,0832.7,5.01,0.00,28.8,27.2,00.0,37.6,30.7,25.4,0000.0,0002.19,0003.12,0001.87
2022-09-22 08:38:00,,0832.7,4.99,0.00,28.8,27.2,00.0,37.6,30.7,25.4,0000.0,0002.24,0003.18,0001.92
2022-09-22 08:39:00,,0832.7,5.01,0.00,28.8,27.2,00.0,37.6,30.7,25.3,0000.0,0002.30,0003.26,0001.97
2022-09-22 08:40:00,,0832.7,4.99,0.00,28.8,27.2,00.0,37.6,30.7,25.3,0000.0,0002.34,0003.32,0002.00
2022-09-22 08:41:00,,0832.7,5.00,0.00,28.8,27.2,00.0,37.6,30.7,25.3,0000.0,0002.35,0003.32,0002.03
2022-09-22 08:42:00,,0832.7,4.99,0.00,28.8,27.3,00.0,37.6,30.7,25.3,0000.0,0002.38,0003.36,0002.05
2022-09-22 08:43:00,,0832.7,5.01,0.00,28.8,27.3,00.0,37.6,30.7,25.3,0000.0,0002.37,0003.29,0002.06
2022-09-22 08:44:00,,0832.7,4.99,0.00,28.8,27.3,00.0,37.6,30.7,25.3,0000.0,0002.40,0003.73,0002.08
2022-09-22 08:45:00,,0832.7,4.99,0.00,28.8,27.3,00.0,37.6,30.7,25.2,0000.0,0002.45,0004.06,0002.13
2022-09-22 08:46:00,,0832.7,5.01,0.00,28.8,27.3,00.0,37.6,30.7,25.3,0000.0,0002.45,0004.00,0002.15
2022-09-22 08:47:00,,0832.6,5.00,0.00,28.8,27.3,00.0,37.6,30.7,25.2,0000.0,0002.46,0003.97,0002.18
2022-09-22 08:48:00,,0832.6,5.00,0.00,28.8,27.3,00.0,37.6,30.7,25.2,0000.0,0002.56,0004.19,0002.21
2022-09-22 08:49:00,,0832.5,5.00,0.00,28.9,27.3,00.0,37.6,30.7,25.3,0000.0,0002.64,0004.36,0002.26
2022-09-22 08:50:00,,0832.5,5.00,0.00,28.9,27.4,00.0,37.6,30.7,25.3,0000.0,0002.71,0004.43,0002.32
2022-09-22 08:51:00,,0832.4,5.00,0.00,28.9,27.4,00.0,37.6,30.7,25.3,0000.0,0002.73,0004.42,0002.36
2022-09-22 08:52:00,,0832.4,5.00,0.00,28.9,27.4,00.0,37.6,30.7,25.3,0000.0,0002.80,0004.52,0002.43
2022-09-22 08:53:00,,0832.4,5.00,0.00,28.9,27.4,00.0,37.6,30.7,25.3,0000.0,0002.88,0004.59,0002.51
2022-09-22 08:54:00,,0832.4,5.00,0.00,28.9,27.4,00.0,37.6,30.7,25.3,0000.0,0002.97,0004.66,0002.60
2022-09-22 08:55:00,,0832.5,4.99,0.00,28.9,27.4,00.0,37.6,30.7,25.3,0000.0,0003.02,0004.35,0002.66
2022-09-22 08:56:00,,0832.5,5.01,0.00,28.9,27.4,00.0,37.6,30.7,25.3,0000.0,0003.05,0003.95,0002.70
2022-09-22 08:57:00,,0832.5,4.99,0.00,28.9,27.3,00.0,37.6,30.8,25.4,0000.0,0003.12,0004.48,0002.78
2022-09-22 08:58:00,,0832.5,5.00,0.00,28.9,27.3,00.0,37.6,30.7,26.5,0000.0,0003.19,0005.08,0002.87
2022-09-22 08:59:00,,0832.5,5.01,0.00,28.9,27.3,00.0,37.6,30.7,26.1,0000.0,0003.22,0005.08,0002.93
